Weather History for Port Isabel, TX

Change the Weather History Date:

Wednesday, September 5, 2012

  Actual Average Record
Temperature  
Mean Temperature 88 °F -  
Max Temperature 97 °F - - ()
Min Temperature 80 °F - - ()
Cooling Degree Days 24    
Growing Degree Days 38 (Base 50)    
Moisture  
Dew Point 75 °F    
Average Humidity 70    
Maximum Humidity 85    
Minimum Humidity 41    
Precipitation  
Precipitation 0.00 in - - ()
Sea Level Pressure  
Sea Level Pressure 29.87 in    
Wind  
Wind Speed 12 mph (SSE)    
Max Wind Speed 23 mph    
Max Gust Speed 29 mph    
Visibility 10 miles    
Events      
T = Trace of Precipitation, MM = Missing Value Source: NWS Daily Summary

Daily Weather History Graph

Daily Weather History Graph

Search for Another Location

Airport:

Trip Planner

Search our weather history database for the weather conditions in past years. The results will help you decide how hot, cold, wet, or windy it might be!

Date:

Astronomy

Sep. 05, 2012 Rise Set
Actual Time 7:11 AM CDT 7:44 PM CDT
Civil Twilight 6:47 AM CDT 8:07 PM CDT
Nautical Twilight 6:20 AM CDT 8:34 PM CDT
Astronomical Twilight 5:52 AM CDT 9:02 PM CDT
Moon 10:51 PM CDT (9/5) 11:40 AM CDT (9/5)
Length of Visible Light 13h 19m
Length of Day
12h 32m
Waning Gibbous, 76% of the Moon is Illuminated
Sep 5
Waning Gibbous
Sep 8
Last Quarter
Sep 15
New
Sep 22
First Quarter
Sep 29
Full

Hourly Weather History & Observations

Time (CDT) Temp. Heat Index Dew Point Humidity Pressure Visibility Wind Dir Wind Speed Gust Speed Precip Events Conditions
12:53 AM 82.0 °F 89.4 °F 75.9 °F 82% 29.91 in 10.0 mi SSE 11.5 mph - N/A   Clear
1:53 AM 82.0 °F 88.6 °F 75.0 °F 79% 29.91 in 10.0 mi SSE 9.2 mph - N/A   Clear
2:53 AM 81.0 °F 87.3 °F 75.9 °F 85% 29.90 in 10.0 mi SSE 9.2 mph - N/A   Clear
3:53 AM 81.0 °F 86.7 °F 75.0 °F 82% 29.88 in 10.0 mi SSE 9.2 mph - N/A   Clear
4:53 AM 81.0 °F 86.7 °F 75.0 °F 82% 29.87 in 10.0 mi SSE 9.2 mph - N/A   Clear
5:53 AM 80.1 °F 85.1 °F 75.0 °F 85% 29.88 in 10.0 mi SSE 6.9 mph - N/A   Clear
6:53 AM 80.1 °F 85.1 °F 75.0 °F 85% 29.88 in 10.0 mi SSE 8.1 mph - N/A   Clear
7:53 AM 81.0 °F 87.3 °F 75.9 °F 85% 29.89 in 8.0 mi SSE 6.9 mph - N/A   Clear
8:53 AM 84.9 °F 94.1 °F 75.9 °F 74% 29.89 in 9.0 mi SSE 17.3 mph - N/A   Clear
9:53 AM 88.0 °F 96.5 °F 73.9 °F 63% 29.90 in 10.0 mi South 16.1 mph - N/A   Clear
10:53 AM 91.0 °F 99.3 °F 73.0 °F 55% 29.91 in 10.0 mi South 12.7 mph 21.9 mph N/A   Scattered Clouds
11:53 AM 93.9 °F 102.1 °F 72.0 °F 49% 29.90 in 10.0 mi SSE 10.4 mph 20.7 mph N/A   Scattered Clouds
12:53 PM 96.1 °F 103.5 °F 71.1 °F 44% 29.88 in 10.0 mi SSE 16.1 mph 24.2 mph N/A   Partly Cloudy
1:53 PM 97.0 °F 103.5 °F 70.0 °F 41% 29.86 in 10.0 mi South 13.8 mph 23.0 mph N/A   Clear
2:53 PM 96.1 °F 105.6 °F 73.0 °F 47% 29.84 in 10.0 mi SSE 15.0 mph 24.2 mph N/A   Clear
3:53 PM 93.9 °F 105.4 °F 75.0 °F 54% 29.84 in 9.0 mi SE 23.0 mph 28.8 mph N/A   Clear
4:53 PM 93.0 °F 103.2 °F 73.9 °F 54% 29.83 in 10.0 mi SE 19.6 mph - N/A   Clear
5:53 PM 90.0 °F 100.2 °F 75.0 °F 61% 29.83 in 10.0 mi SE 17.3 mph - N/A   Clear
6:53 PM 87.1 °F 96.3 °F 75.0 °F 67% 29.83 in 10.0 mi SE 18.4 mph - N/A   Clear
7:53 PM 84.0 °F 92.6 °F 75.9 °F 76% 29.84 in 10.0 mi SE 13.8 mph - N/A   Clear
8:53 PM 82.9 °F 90.8 °F 75.9 °F 79% 29.86 in 10.0 mi SE 13.8 mph 21.9 mph N/A   Clear
9:53 PM 82.9 °F 91.8 °F 77.0 °F 82% 29.87 in 10.0 mi SSE 11.5 mph - N/A   Partly Cloudy
10:53 PM 82.9 °F 90.8 °F 75.9 °F 79% 29.89 in 10.0 mi SSE 10.4 mph - N/A   Clear
11:53 PM 82.0 °F 89.4 °F 75.9 °F 82% 29.89 in 10.0 mi South 8.1 mph - N/A   Clear